QPF
0.01 0.01 0.00 0.00 0.00 0.00 0.00 0.00 0.00 0.01 0.03 0.03 0.02 0.01 0.03 0.01 0.01 0.00 0.00 0.00 0.00 0.00 0.00 0.01 0.01 0.02 0.02 0.03 0.05 0.06 0.09 0.11 0.09 0.06 0.06 0.06 0.07 0.07 0.06 0.06 0.07 0.09 0.09 0.10
0.00 0.01 0.01 0.00 0.00 0.00 0.00 0.00 0.00 0.00 0.00 0.01 0.01 0.01 0.01 0.01 0.01 0.01 0.00 0.00 0.00 0.00 0.01 0.01 0.01 0.01 0.01 0.02 0.04 0.05 0.06 0.09 0.10 0.07 0.06 0.05 0.05 0.06 0.06 0.07 0.07 0.07 0.09 0.11
0.01 0.02 0.01 0.00 0.00 0.00 0.00 0.00 0.00 0.01 0.01 0.00 0.01 0.00 0.00 0.00 0.00 0.01 0.01 0.00 0.00 0.01 0.01 0.01 0.01 0.01 0.01 0.01 0.02 0.03 0.04 0.06 0.07 0.06 0.05 0.06 0.05 0.04 0.05 0.05 0.05 0.05 0.06 0.05
0.01 0.02 0.02 0.01 0.00 0.00 0.00 0.00 0.01 0.01 0.02 0.01 0.01 0.00 0.00 0.00 0.00 0.00 0.00 0.00 0.01 0.01 0.01 0.01 0.02 0.02 0.01 0.01 0.01 0.03 0.03 0.04 0.06 0.06 0.05 0.06 0.06 0.05 0.05 0.05 0.05 0.05 0.05 0.05
0.01 0.01 0.02 0.01 0.00 0.00 0.01 0.01 0.00 0.01 0.01 0.01 0.00 0.01 0.01 0.01 0.01 0.01 0.01 0.00 0.00 0.01 0.01 0.01 0.02 0.02 0.01 0.01 0.03 0.04 0.05 0.06 0.06 0.05 0.06 0.07 0.06 0.05 0.05 0.06 0.07 0.07 0.06 0.05
0.00 0.02 0.03 0.03 0.01 0.00 0.01 0.01 0.00 0.00 0.00 0.00 0.01 0.02 0.04 0.02 0.02 0.02 0.01 0.00 0.00 0.00 0.01 0.02 0.02 0.02 0.02 0.01 0.02 0.03 0.05 0.06 0.05 0.05 0.06 0.06 0.06 0.06 0.07 0.07 0.06 0.06 0.06 0.04
0.01 0.01 0.04 0.02 0.01 0.01 0.01 0.02 0.00 0.00 0.01 0.01 0.02 0.03 0.03 0.01 0.02 0.02 0.01 0.01 0.00 0.00 0.01 0.04 0.06 0.04 0.03 0.03 0.04 0.03 0.05 0.06 0.05 0.03 0.05 0.05 0.05 0.06 0.07 0.08 0.08 0.07 0.07 0.06
0.00 0.02 0.04 0.03 0.02 0.02 0.03 0.01 0.00 0.01 0.01 0.01 0.01 0.01 0.01 0.01 0.01 0.02 0.02 0.01 0.00 0.00 0.01 0.03 0.05 0.04 0.03 0.03 0.05 0.06 0.05 0.04 0.03 0.03 0.02 0.02 0.03 0.05 0.07 0.09 0.10 0.07 0.05 0.05
0.01 0.02 0.03 0.06 0.06 0.03 0.01 0.00 0.01 0.01 0.01 0.01 0.01 0.01 0.01 0.01 0.02 0.03 0.02 0.01 0.01 0.01 0.02 0.02 0.02 0.02 0.03 0.03 0.03 0.05 0.04 0.04 0.03 0.02 0.03 0.03 0.02 0.03 0.03 0.04 0.05 0.06 0.06 0.06
0.02 0.02 0.01 0.05 0.05 0.03 0.01 0.01 0.01 0.01 0.01 0.00 0.00 0.01 0.01 0.02 0.04 0.03 0.03 0.03 0.03 0.04 0.03 0.02 0.02 0.03 0.04 0.05 0.05 0.05 0.04 0.04 0.03 0.03 0.03 0.04 0.04 0.04 0.05 0.04 0.04 0.05 0.05 0.05
0.04 0.03 0.01 0.01 0.01 0.02 0.00 0.00 0.00 0.01 0.00 0.00 0.01 0.01 0.01 0.02 0.05 0.04 0.03 0.02 0.03 0.03 0.03 0.03 0.03 0.03 0.03 0.04 0.05 0.05 0.05 0.05 0.04 0.04 0.04 0.05 0.05 0.05 0.05 0.04 0.04 0.04 0.04 0.05
0.05 0.04 0.04 0.02 0.01 0.01 0.00 0.00 0.00 0.00 0.00 0.01 0.01 0.01 0.02 0.02 0.03 0.03 0.03 0.02 0.02 0.02 0.02 0.02 0.03 0.03 0.03 0.03 0.05 0.08 0.11 0.12 0.10 0.06 0.05 0.05 0.05 0.07 0.09 0.07 0.05 0.04 0.03 0.03
0.04 0.03 0.02 0.01 0.01 0.02 0.01 0.01 0.01 0.01 0.01 0.01 0.01 0.02 0.02 0.02 0.03 0.03 0.03 0.02 0.01 0.01 0.02 0.02 0.03 0.03 0.02 0.02 0.03 0.06 0.10 0.10 0.08 0.06 0.05 0.04 0.05 0.06 0.05 0.05 0.04 0.04 0.03 0.03
0.02 0.01 0.01 0.01 0.01 0.02 0.01 0.01 0.01 0.01 0.01 0.01 0.01 0.01 0.01 0.02 0.02 0.04 0.03 0.02 0.01 0.01 0.02 0.02 0.02 0.02 0.01 0.01 0.02 0.05 0.07 0.07 0.08 0.08 0.07 0.07 0.07 0.09 0.06 0.03 0.02 0.02 0.03 0.04
0.02 0.01 0.01 0.01 0.02 0.01 0.01 0.01 0.01 0.01 0.01 0.02 0.02 0.02 0.02 0.02 0.03 0.04 0.03 0.02 0.02 0.01 0.02 0.02 0.02 0.02 0.02 0.02 0.03 0.06 0.10 0.14 0.15 0.13 0.11 0.10 0.09 0.08 0.05 0.02 0.01 0.01 0.02 0.04
0.02 0.01 0.01 0.03 0.03 0.02 0.01 0.01 0.01 0.01 0.01 0.02 0.02 0.02 0.02 0.02 0.02 0.02 0.02 0.02 0.02 0.02 0.03 0.03 0.02 0.02 0.03 0.03 0.05 0.06 0.07 0.09 0.10 0.09 0.07 0.06 0.05 0.05 0.04 0.02 0.02 0.01 0.02 0.03
0.02 0.03 0.03 0.03 0.02 0.01 0.01 0.01 0.01 0.01 0.01 0.01 0.02 0.02 0.02 0.02 0.02 0.02 0.02 0.03 0.02 0.02 0.03 0.04 0.04 0.03 0.04 0.05 0.09 0.07 0.06 0.06 0.05 0.04 0.03 0.03 0.03 0.03 0.03 0.03 0.02 0.02 0.02 0.03
0.04 0.05 0.04 0.03 0.03 0.02 0.02 0.02 0.01 0.01 0.02 0.02 0.02 0.02 0.02 0.02 0.03 0.02 0.03 0.03 0.02 0.02 0.02 0.03 0.03 0.04 0.04 0.05 0.10 0.09 0.05 0.04 0.04 0.03 0.03 0.03 0.03 0.03 0.03 0.03 0.03 0.02 0.02 0.03
0.03 0.03 0.03 0.03 0.03 0.03 0.03 0.03 0.04 0.04 0.05 0.04 0.03 0.02 0.03 0.03 0.03 0.03 0.03 0.04 0.03 0.03 0.03 0.02 0.02 0.03 0.05 0.05 0.07 0.10 0.08 0.04 0.03 0.02 0.02 0.02 0.02 0.02 0.02 0.02 0.02 0.02 0.02 0.02
0.02 0.02 0.02 0.03 0.02 0.03 0.03 0.03 0.03 0.03 0.04 0.05 0.05 0.04 0.03 0.03 0.03 0.04 0.05 0.06 0.04 0.03 0.03 0.03 0.03 0.03 0.02 0.03 0.06 0.08 0.10 0.06 0.04 0.03 0.02 0.01 0.01 0.01 0.01 0.02 0.02 0.02 0.02 0.02
0.02 0.02 0.02 0.02 0.03 0.03 0.03 0.04 0.03 0.03 0.03 0.03 0.03 0.03 0.03 0.02 0.03 0.05 0.06 0.07 0.07 0.06 0.05 0.03 0.03 0.03 0.03 0.02 0.03 0.03 0.05 0.06 0.04 0.03 0.01 0.01 0.01 0.01 0.01 0.01 0.02 0.01 0.01 0.02
0.03 0.03 0.03 0.03 0.03 0.04 0.04 0.04 0.04 0.03 0.02 0.02 0.02 0.03 0.02 0.02 0.04 0.05 0.05 0.05 0.05 0.05 0.03 0.02 0.02 0.03 0.03 0.02 0.01 0.03 0.04 0.03 0.02 0.01 0.01 0.01 0.01 0.01 0.01 0.01 0.02 0.02 0.01 0.01
0.04 0.03 0.02 0.02 0.03 0.04 0.04 0.04 0.04 0.03 0.03 0.02 0.02 0.02 0.02 0.02 0.03 0.04 0.04 0.04 0.04 0.03 0.03 0.02 0.02 0.02 0.03 0.02 0.03 0.05 0.04 0.02 0.01 0.01 0.01 0.01 0.01 0.01 0.01 0.01 0.01 0.01 0.01 0.01
0.04 0.03 0.02 0.03 0.04 0.04 0.04 0.04 0.04 0.04 0.04 0.02 0.02 0.02 0.02 0.03 0.03 0.03 0.03 0.05 0.04 0.03 0.02 0.03 0.02 0.02 0.02 0.02 0.03 0.02 0.01 0.01 0.01 0.01 0.01 0.01 0.01 0.01 0.01 0.01 0.00 0.00 0.00 0.00
0.04 0.04 0.04 0.04 0.04 0.04 0.04 0.04 0.05 0.05 0.04 0.03 0.03 0.02 0.02 0.03 0.03 0.02 0.03 0.04 0.05 0.03 0.02 0.02 0.02 0.01 0.01 0.01 0.01 0.01 0.00 0.00 0.01 0.01 0.02 0.02 0.01 0.00 0.00 0.00 0.00 0.00 0.00 0.00
0.06 0.05 0.04 0.04 0.04 0.03 0.03 0.03 0.04 0.04 0.04 0.04 0.04 0.04 0.04 0.04 0.03 0.03 0.03 0.04 0.05 0.05 0.03 0.02 0.02 0.01 0.01 0.01 0.01 0.01 0.00 0.01 0.01 0.01 0.01 0.01 0.01 0.00 0.00 0.01 0.01 0.00 0.00 0.00
0.05 0.05 0.04 0.03 0.03 0.03 0.03 0.03 0.03 0.04 0.05 0.05 0.05 0.05 0.05 0.04 0.05 0.05 0.05 0.05 0.05 0.05 0.05 0.03 0.03 0.02 0.01 0.01 0.00 0.01 0.02 0.02 0.01 0.02 0.02 0.01 0.01 0.01 0.01 0.01 0.01 0.01 0.01 0.01
MSLP
1009.12 1009.45 1009.77 1010.10 1010.48 1010.91 1011.40 1011.93 1012.50 1013.08 1013.66 1014.23 1014.81 1015.40 1016.01 1016.67 1017.37 1018.12 1018.88 1019.64 1020.36 1021.01 1021.57 1022.02 1022.37 1022.64 1022.85 1023.04 1023.23 1023.45 1023.70 1023.98 1024.28 1024.57 1024.84 1025.06 1025.23 1025.35 1025.43 1025.48 1025.52 1025.57 1025.64 1025.73
1009.74 1010.03 1010.20 1010.30 1010.36 1010.45 1010.59 1010.82 1011.16 1011.62 1012.19 1012.87 1013.63 1014.46 1015.35 1016.25 1017.16 1018.05 1018.89 1019.66 1020.35 1020.94 1021.43 1021.84 1022.18 1022.48 1022.75 1023.03 1023.33 1023.65 1023.99 1024.34 1024.68 1025.00 1025.27 1025.49 1025.66 1025.78 1025.87 1025.94 1026.01 1026.09 1026.18 1026.29
1010.34 1010.59 1010.65 1010.54 1010.35 1010.13 1009.97 1009.93 1010.06 1010.39 1010.93 1011.66 1012.56 1013.58 1014.66 1015.77 1016.84 1017.85 1018.76 1019.55 1020.22 1020.78 1021.24 1021.63 1021.98 1022.32 1022.66 1023.02 1023.41 1023.82 1024.24 1024.64 1025.01 1025.34 1025.61 1025.83 1025.99 1026.11 1026.21 1026.29 1026.38 1026.48 1026.59 1026.72
1010.82 1011.04 1011.00 1010.75 1010.35 1009.91 1009.51 1009.26 1009.22 1009.44 1009.94 1010.69 1011.68 1012.82 1014.05 1015.29 1016.49 1017.59 1018.55 1019.37 1020.04 1020.59 1021.05 1021.45 1021.82 1022.21 1022.61 1023.05 1023.51 1023.99 1024.45 1024.89 1025.27 1025.60 1025.86 1026.07 1026.22 1026.34 1026.44 1026.54 1026.64 1026.76 1026.88 1027.02
1011.10 1011.28 1011.17 1010.82 1010.30 1009.71 1009.17 1008.78 1008.63 1008.77 1009.24 1010.01 1011.04 1012.25 1013.57 1014.90 1016.18 1017.34 1018.35 1019.19 1019.88 1020.44 1020.91 1021.33 1021.75 1022.18 1022.64 1023.13 1023.64 1024.15 1024.64 1025.08 1025.47 1025.78 1026.02 1026.21 1026.35 1026.47 1026.58 1026.69 1026.81 1026.94 1027.08 1027.21
1011.10 1011.24 1011.08 1010.68 1010.10 1009.46 1008.86 1008.43 1008.24 1008.37 1008.83 1009.61 1010.67 1011.92 1013.28 1014.66 1015.97 1017.16 1018.20 1019.06 1019.76 1020.35 1020.85 1021.31 1021.76 1022.24 1022.74 1023.26 1023.80 1024.32 1024.81 1025.23 1025.59 1025.88 1026.10 1026.27 1026.41 1026.53 1026.64 1026.77 1026.91 1027.06 1027.21 1027.36
1010.81 1010.90 1010.72 1010.31 1009.75 1009.12 1008.56 1008.17 1008.02 1008.18 1008.68 1009.49 1010.57 1011.83 1013.20 1014.58 1015.89 1017.08 1018.12 1018.99 1019.71 1020.32 1020.85 1021.35 1021.84 1022.35 1022.88 1023.42 1023.96 1024.47 1024.94 1025.33 1025.66 1025.91 1026.11 1026.26 1026.39 1026.52 1026.66 1026.81 1026.97 1027.15 1027.33 1027.49
1010.28 1010.33 1010.14 1009.76 1009.27 1008.74 1008.28 1007.99 1007.95 1008.20 1008.76 1009.61 1010.70 1011.96 1013.31 1014.65 1015.93 1017.09 1018.10 1018.96 1019.69 1020.32 1020.88 1021.41 1021.94 1022.48 1023.03 1023.57 1024.10 1024.59 1025.02 1025.37 1025.66 1025.88 1026.05 1026.19 1026.32 1026.46 1026.62 1026.81 1027.01 1027.22 1027.43 1027.62
1009.64 1009.64 1009.47 1009.15 1008.76 1008.37 1008.07 1007.94 1008.04 1008.41 1009.05 1009.94 1011.04 1012.28 1013.57 1014.85 1016.06 1017.15 1018.12 1018.95 1019.67 1020.30 1020.89 1021.45 1022.01 1022.57 1023.13 1023.67 1024.19 1024.64 1025.03 1025.35 1025.60 1025.78 1025.93 1026.06 1026.20 1026.36 1026.55 1026.77 1027.02 1027.28 1027.53 1027.76
1009.05 1009.02 1008.87 1008.63 1008.36 1008.13 1008.01 1008.05 1008.31 1008.81 1009.53 1010.46 1011.55 1012.73 1013.94 1015.13 1016.23 1017.24 1018.13 1018.91 1019.60 1020.23 1020.83 1021.41 1022.00 1022.58 1023.16 1023.70 1024.20 1024.63 1024.99 1025.27 1025.48 1025.64 1025.77 1025.89 1026.03 1026.21 1026.43 1026.69 1026.98 1027.28 1027.58 1027.86
1008.68 1008.64 1008.52 1008.36 1008.21 1008.13 1008.18 1008.39 1008.80 1009.40 1010.19 1011.13 1012.19 1013.29 1014.39 1015.45 1016.43 1017.32 1018.11 1018.82 1019.47 1020.09 1020.69 1021.29 1021.90 1022.51 1023.10 1023.65 1024.14 1024.56 1024.89 1025.15 1025.33 1025.46 1025.57 1025.68 1025.82 1026.01 1026.25 1026.54 1026.86 1027.21 1027.55 1027.87
1008.67 1008.62 1008.52 1008.43 1008.39 1008.44 1008.63 1008.97 1009.49 1010.17 1010.99 1011.92 1012.90 1013.90 1014.87 1015.79 1016.62 1017.38 1018.06 1018.69 1019.29 1019.87 1020.47 1021.09 1021.72 1022.35 1022.96 1023.52 1024.02 1024.43 1024.75 1024.98 1025.14 1025.25 1025.34 1025.44 1025.57 1025.75 1025.99 1026.29 1026.64 1027.01 1027.39 1027.75
1009.05 1008.98 1008.90 1008.86 1008.89 1009.04 1009.32 1009.76 1010.34 1011.06 1011.87 1012.75 1013.65 1014.53 1015.36 1016.12 1016.80 1017.42 1017.99 1018.53 1019.07 1019.63 1020.22 1020.84 1021.48 1022.13 1022.76 1023.34 1023.84 1024.26 1024.57 1024.79 1024.93 1025.02 1025.09 1025.16 1025.27 1025.44 1025.67 1025.96 1026.31 1026.69 1027.08 1027.45
1009.76 1009.67 1009.59 1009.57 1009.65 1009.84 1010.18 1010.66 1011.27 1011.98 1012.76 1013.57 1014.37 1015.12 1015.81 1016.42 1016.97 1017.46 1017.92 1018.38 1018.86 1019.38 1019.95 1020.57 1021.23 1021.89 1022.53 1023.12 1023.63 1024.05 1024.35 1024.56 1024.69 1024.76 1024.80 1024.85 1024.93 1025.07 1025.27 1025.54 1025.86 1026.22 1026.60 1026.98
1010.66 1010.55 1010.46 1010.44 1010.52 1010.74 1011.10 1011.58 1012.18 1012.86 1013.58 1014.31 1015.00 1015.64 1016.20 1016.69 1017.11 1017.49 1017.86 1018.25 1018.68 1019.16 1019.71 1020.32 1020.97 1021.63 1022.27 1022.87 1023.38 1023.79 1024.10 1024.30 1024.42 1024.47 1024.49 1024.51 1024.56 1024.66 1024.82 1025.04 1025.32 1025.65 1026.00 1026.35
1011.61 1011.46 1011.35 1011.31 1011.39 1011.60 1011.94 1012.41 1012.97 1013.60 1014.26 1014.90 1015.51 1016.04 1016.50 1016.89 1017.23 1017.53 1017.83 1018.15 1018.53 1018.98 1019.50 1020.09 1020.72 1021.36 1021.99 1022.58 1023.08 1023.49 1023.79 1023.99 1024.10 1024.14 1024.15 1024.15 1024.16 1024.22 1024.34 1024.51 1024.74 1025.01 1025.32 1025.62
1012.47 1012.29 1012.15 1012.09 1012.14 1012.32 1012.64 1013.07 1013.58 1014.16 1014.75 1015.33 1015.85 1016.31 1016.70 1017.02 1017.30 1017.54 1017.79 1018.08 1018.42 1018.83 1019.32 1019.87 1020.46 1021.08 1021.68 1022.24 1022.72 1023.12 1023.41 1023.61 1023.72 1023.76 1023.76 1023.75 1023.75 1023.77 1023.85 1023.97 1024.14 1024.36 1024.60 1024.85
1013.17 1012.95 1012.78 1012.70 1012.73 1012.88 1013.16 1013.55 1014.01 1014.53 1015.06 1015.58 1016.04 1016.45 1016.79 1017.07 1017.30 1017.52 1017.74 1018.00 1018.31 1018.69 1019.14 1019.65 1020.20 1020.77 1021.33 1021.85 1022.31 1022.68 1022.97 1023.17 1023.29 1023.34 1023.35 1023.33 1023.32 1023.33 1023.37 1023.45 1023.57 1023.72 1023.90 1024.09
1013.68 1013.45 1013.26 1013.17 1013.17 1013.30 1013.54 1013.87 1014.29 1014.74 1015.21 1015.67 1016.08 1016.45 1016.75 1017.00 1017.22 1017.43 1017.64 1017.88 1018.18 1018.53 1018.94 1019.40 1019.90 1020.42 1020.93 1021.41 1021.84 1022.19 1022.47 1022.68 1022.81 1022.88 1022.90 1022.91 1022.90 1022.90 1022.93 1022.97 1023.04 1023.14 1023.25 1023.38
1014.09 1013.85 1013.67 1013.56 1013.55 1013.64 1013.84 1014.12 1014.47 1014.85 1015.26 1015.65 1016.01 1016.33 1016.60 1016.84 1017.05 1017.25 1017.46 1017.70 1017.98 1018.32 1018.70 1019.12 1019.58 1020.05 1020.51 1020.95 1021.34 1021.68 1021.95 1022.16 1022.31 1022.40 1022.46 1022.48 1022.49 1022.50 1022.51 1022.53 1022.57 1022.61 1022.67 1022.72
1014.45 1014.23 1014.06 1013.95 1013.93 1013.99 1014.13 1014.35 1014.61 1014.92 1015.23 1015.55 1015.84 1016.11 1016.35 1016.56 1016.77 1016.97 1017.19 1017.44 1017.72 1018.05 1018.42 1018.81 1019.24 1019.67 1020.09 1020.49 1020.86 1021.17 1021.44 1021.66 1021.82 1021.94 1022.02 1022.07 1022.10 1022.12 1022.13 1022.13 1022.13 1022.13 1022.13 1022.12
1014.84 1014.65 1014.50 1014.39 1014.35 1014.37 1014.45 1014.58 1014.75 1014.95 1015.17 1015.39 1015.60 1015.80 1015.99 1016.19 1016.38 1016.59 1016.83 1017.09 1017.40 1017.73 1018.10 1018.49 1018.90 1019.31 1019.70 1020.08 1020.42 1020.72 1020.98 1021.20 1021.37 1021.50 1021.60 1021.67 1021.72 1021.74 1021.75 1021.74 1021.71 1021.67 1021.62 1021.55
1015.27 1015.11 1014.98 1014.87 1014.80 1014.77 1014.78 1014.82 1014.89 1014.97 1015.07 1015.18 1015.29 1015.42 1015.56 1015.72 1015.91 1016.13 1016.39 1016.68 1017.02 1017.38 1017.77 1018.17 1018.58 1018.98 1019.37 1019.72 1020.05 1020.33 1020.58 1020.79 1020.96 1021.10 1021.21 1021.29 1021.34 1021.36 1021.36 1021.34 1021.29 1021.21 1021.12 1021.00
1015.69 1015.57 1015.45 1015.34 1015.24 1015.16 1015.09 1015.03 1014.98 1014.94 1014.92 1014.92 1014.94 1014.99 1015.08 1015.21 1015.39 1015.62 1015.91 1016.24 1016.62 1017.02 1017.45 1017.88 1018.31 1018.72 1019.10 1019.44 1019.75 1020.02 1020.25 1020.44 1020.59 1020.72 1020.82 1020.89 1020.93 1020.95 1020.94 1020.90 1020.83 1020.73 1020.60 1020.45
1016.05 1015.95 1015.84 1015.72 1015.59 1015.45 1015.30 1015.15 1015.00 1014.85 1014.72 1014.62 1014.55 1014.53 1014.58 1014.69 1014.87 1015.12 1015.44 1015.82 1016.24 1016.69 1017.16 1017.63 1018.08 1018.50 1018.88 1019.22 1019.51 1019.75 1019.95 1020.11 1020.24 1020.34 1020.41 1020.46 1020.49 1020.49 1020.46 1020.41 1020.32 1020.21 1020.06 1019.88
1016.27 1016.18 1016.07 1015.94 1015.79 1015.60 1015.40 1015.17 1014.94 1014.71 1014.49 1014.31 1014.18 1014.12 1014.13 1014.23 1014.42 1014.69 1015.04 1015.46 1015.93 1016.43 1016.93 1017.43 1017.90 1018.33 1018.71 1019.03 1019.29 1019.50 1019.66 1019.78 1019.87 1019.92 1019.96 1019.98 1019.97 1019.95 1019.91 1019.84 1019.75 1019.63 1019.47 1019.29
1016.31 1016.23 1016.13 1016.00 1015.82 1015.62 1015.38 1015.11 1014.83 1014.55 1014.29 1014.07 1013.91 1013.82 1013.82 1013.92 1014.12 1014.41 1014.78 1015.23 1015.73 1016.25 1016.77 1017.28 1017.75 1018.17 1018.53 1018.82 1019.04 1019.21 1019.32 1019.39 1019.43 1019.44 1019.43 1019.41 1019.38 1019.34 1019.28 1019.21 1019.11 1018.99 1018.85 1018.68
Thickness
5788 5802 5807 5802 5805 5811 5806 5805 5795 5796 5795 5800 5806 5809 5812 5815 5815 5814 5812 5812 5811 5809 5809 5809 5808 5807 5805 5802 5799 5795 5789 5783 5779 5775 5772 5769 5766 5763 5761 5758 5756 5753 5750 5747
5775 5789 5793 5795 5803 5809 5809 5810 5806 5801 5798 5811 5812 5811 5808 5809 5810 5806 5806 5806 5806 5805 5804 5802 5802 5801 5800 5797 5793 5790 5784 5778 5775 5771 5767 5764 5761 5758 5756 5753 5751 5748 5745 5741
5756 5774 5778 5774 5796 5804 5806 5811 5808 5795 5799 5808 5804 5801 5802 5803 5803 5802 5801 5801 5800 5799 5798 5797 5797 5796 5793 5791 5788 5783 5777 5773 5769 5765 5762 5759 5756 5753 5750 5748 5746 5742 5739 5735
5751 5754 5739 5778 5811 5812 5807 5807 5809 5805 5804 5806 5801 5801 5803 5803 5800 5798 5798 5797 5796 5795 5794 5793 5793 5791 5789 5786 5781 5776 5771 5767 5764 5761 5757 5754 5751 5747 5745 5743 5740 5736 5733 5730
5746 5739 5748 5778 5799 5805 5796 5791 5807 5803 5799 5801 5801 5795 5789 5795 5795 5793 5794 5794 5793 5793 5791 5788 5786 5784 5781 5777 5773 5769 5765 5762 5760 5757 5752 5748 5744 5741 5740 5738 5735 5731 5728 5724
5740 5731 5733 5761 5793 5807 5794 5773 5799 5801 5793 5793 5792 5773 5769 5785 5788 5789 5790 5788 5787 5787 5784 5780 5778 5777 5773 5769 5765 5761 5760 5758 5755 5752 5748 5743 5740 5737 5736 5733 5729 5726 5722 5719
5732 5731 5740 5765 5786 5790 5759 5761 5790 5793 5789 5785 5779 5775 5776 5782 5782 5782 5781 5780 5779 5777 5773 5770 5770 5768 5764 5760 5756 5755 5754 5751 5748 5746 5743 5739 5736 5733 5730 5728 5724 5720 5716 5713
5730 5724 5726 5761 5769 5760 5760 5780 5785 5783 5782 5778 5775 5774 5774 5773 5771 5770 5770 5770 5769 5766 5763 5762 5761 5758 5755 5751 5750 5749 5746 5743 5740 5738 5737 5734 5730 5726 5725 5722 5718 5714 5710 5706
5729 5727 5741 5751 5754 5761 5769 5770 5773 5774 5775 5772 5767 5765 5764 5762 5760 5759 5760 5759 5758 5756 5753 5753 5752 5750 5746 5744 5744 5741 5737 5734 5731 5730 5727 5725 5722 5718 5716 5714 5712 5709 5705 5700
5723 5727 5736 5741 5748 5754 5761 5763 5766 5767 5766 5764 5758 5756 5753 5752 5750 5750 5748 5747 5747 5745 5743 5741 5742 5741 5739 5738 5737 5733 5729 5725 5723 5720 5717 5714 5712 5710 5706 5704 5703 5701 5697 5693
5712 5719 5728 5732 5738 5744 5750 5754 5756 5757 5756 5753 5750 5746 5745 5742 5741 5741 5740 5739 5737 5735 5733 5732 5732 5731 5730 5729 5728 5724 5721 5718 5715 5712 5708 5702 5698 5694 5693 5689 5688 5688 5687 5684
5701 5712 5718 5720 5731 5738 5738 5739 5741 5742 5742 5743 5741 5738 5737 5735 5733 5732 5731 5730 5727 5725 5724 5723 5723 5721 5720 5720 5718 5715 5712 5710 5708 5705 5700 5696 5690 5683 5678 5678 5677 5676 5675 5673
5704 5711 5714 5718 5723 5727 5728 5729 5731 5731 5731 5730 5730 5729 5728 5725 5724 5723 5721 5720 5717 5716 5716 5715 5713 5712 5711 5711 5709 5707 5704 5702 5700 5697 5693 5688 5684 5679 5673 5668 5666 5664 5663 5661
5698 5700 5700 5705 5709 5714 5716 5719 5720 5720 5721 5721 5720 5719 5717 5715 5714 5712 5711 5711 5711 5709 5707 5705 5703 5702 5702 5702 5700 5698 5696 5693 5691 5688 5685 5681 5678 5673 5669 5665 5661 5656 5652 5650
5686 5690 5692 5696 5699 5701 5704 5706 5705 5704 5706 5707 5708 5707 5706 5704 5702 5702 5703 5703 5701 5699 5697 5696 5694 5692 5693 5692 5691 5689 5687 5684 5681 5679 5676 5674 5671 5667 5663 5659 5655 5650 5646 5641
5676 5680 5683 5684 5684 5687 5689 5691 5691 5692 5693 5694 5695 5695 5694 5694 5693 5693 5693 5692 5690 5688 5687 5686 5684 5684 5684 5683 5681 5679 5676 5674 5671 5670 5668 5666 5663 5660 5656 5652 5648 5643 5639 5635
5663 5664 5667 5668 5671 5673 5675 5679 5681 5681 5682 5682 5683 5684 5684 5683 5682 5682 5681 5681 5680 5678 5678 5676 5675 5675 5674 5674 5672 5670 5668 5665 5663 5662 5660 5658 5655 5652 5648 5645 5641 5637 5633 5629
5659 5660 5661 5661 5662 5663 5664 5667 5669 5671 5672 5673 5673 5673 5673 5672 5671 5670 5670 5670 5670 5669 5668 5667 5667 5666 5665 5665 5664 5662 5660 5658 5656 5654 5652 5649 5646 5644 5640 5637 5634 5630 5625 5621
5650 5651 5652 5653 5653 5653 5653 5654 5656 5660 5662 5663 5662 5662 5662 5662 5662 5661 5661 5660 5658 5657 5657 5658 5657 5657 5657 5656 5655 5654 5652 5650 5648 5645 5643 5639 5638 5635 5632 5629 5626 5622 5619 5614
5641 5642 5643 5644 5645 5645 5644 5646 5648 5649 5651 5652 5652 5652 5652 5652 5653 5653 5652 5651 5651 5651 5651 5650 5649 5649 5648 5647 5646 5646 5644 5642 5639 5637 5634 5632 5630 5627 5624 5621 5618 5615 5611 5607
5630 5632 5633 5635 5635 5636 5638 5640 5641 5642 5643 5645 5644 5644 5644 5645 5645 5645 5644 5643 5644 5644 5643 5641 5642 5641 5640 5638 5638 5638 5636 5634 5632 5629 5627 5625 5622 5618 5616 5613 5610 5607 5604 5601
5621 5622 5624 5626 5627 5628 5631 5633 5634 5635 5636 5636 5637 5637 5636 5635 5636 5636 5636 5636 5636 5634 5635 5635 5635 5633 5631 5630 5631 5630 5628 5626 5624 5622 5619 5617 5613 5610 5608 5605 5603 5600 5597 5594
5612 5614 5615 5617 5618 5620 5623 5625 5626 5627 5628 5629 5629 5629 5629 5630 5630 5630 5628 5629 5629 5627 5628 5627 5626 5623 5622 5623 5623 5622 5620 5618 5616 5614 5612 5609 5607 5604 5601 5598 5596 5593 5589 5586
5605 5606 5607 5609 5611 5612 5613 5616 5618 5620 5621 5622 5622 5623 5623 5624 5624 5625 5625 5622 5621 5619 5620 5617 5616 5615 5613 5615 5615 5614 5612 5610 5608 5606 5604 5602 5599 5597 5594 5592 5589 5585 5581 5578
5599 5601 5602 5602 5603 5605 5607 5609 5611 5613 5614 5616 5617 5618 5619 5620 5619 5619 5619 5617 5614 5613 5613 5610 5608 5607 5608 5608 5608 5607 5605 5603 5602 5600 5597 5595 5592 5590 5587 5584 5580 5577 5574 5570
5593 5594 5596 5597 5598 5600 5603 5604 5606 5607 5609 5610 5611 5612 5614 5614 5614 5612 5611 5610 5609 5607 5606 5604 5602 5600 5602 5602 5601 5600 5598 5596 5594 5592 5590 5587 5585 5582 5579 5576 5573 5569 5566 5562
5588 5589 5590 5592 5594 5596 5598 5599 5600 5602 5604 5605 5606 5606 5607 5607 5607 5606 5605 5604 5603 5601 5600 5598 5597 5596 5596 5596 5595 5593 5591 5588 5586 5584 5582 5580 5578 5575 5572 5569 5566 5562 5558 5554